Palacios, TX

7:58 PM CDT on March 27, 2017 (GMT -0500)
Palacios Municipal

Weather History for KPSX - January, 2013

Change the Weather History Date:

Thursday, January 10, 2013

  Actual Average Record
Temperature  
Mean Temperature 60 °F -  
Max Temperature 66 °F 60 °F 78 °F (1950)
Min Temperature 54 °F 42 °F 15 °F (1962)
Degree Days  
Heating Degree Days 5    
Growing Degree Days 10 (Base 50)    
Moisture  
Dew Point 51 °F    
Average Humidity 76    
Maximum Humidity 93    
Minimum Humidity 48    
Precipitation  
Precipitation 0.00 in - - ()
Sea Level Pressure  
Sea Level Pressure 30.05 in    
Wind  
Wind Speed 6 mph (SSW)    
Max Wind Speed 10 mph    
Max Gust Speed -    
Visibility 10 miles    
Events Rain    
Averages and records for this station are not official NWS values.
T = Trace of Precipitation, MM = Missing Value Source: NWS Daily Summary

Daily Weather History Graph

Daily Weather History Graph

Search for Another Location

Airport or City:

Trip Planner

Search our weather history database for the weather conditions in past years. The results will help you decide how hot, cold, wet, or windy it might be!

Date:

Astronomy

Jan. 10, 2013 Rise Set
Actual Time 7:19 AM CST 5:46 PM CST
Civil Twilight 6:53 AM CST 6:11 PM CST
Nautical Twilight 6:24 AM CST 6:41 PM CST
Astronomical Twilight 5:55 AM CST 7:09 PM CST
Moon 6:00 AM CST (1/10) 4:54 PM CST (1/10)
Length of Visible Light 11h 18m
Length of Day
10h 27m
Waning Crescent, 2% of the Moon is Illuminated
Jan 10
Waning Crescent
Jan 11
New
Jan 18
First Quarter
Jan 26
Full
Feb 3
Last Quarter

Hourly Weather History & Observations

Time (CST) Temp. Dew Point Humidity Pressure Visibility Wind Dir Wind Speed Gust Speed Precip Events Conditions
12:53 AM 60.1 °F 57.9 °F 93% 30.04 in 9.0 mi SSW 4.6 mph - 0.00 in Rain Light Rain
1:53 AM 60.1 °F 57.9 °F 93% 30.04 in 10.0 mi SE 8.1 mph - 0.00 in   Overcast
2:31 AM 60.8 °F 57.2 °F 88% 30.06 in 10.0 mi SSW 3.5 mph - N/A   Partly Cloudy
2:53 AM 60.1 °F 57.0 °F 90% 30.06 in 10.0 mi SW 5.8 mph - N/A   Partly Cloudy
3:53 AM 59.0 °F 57.0 °F 93% 30.02 in 10.0 mi West 4.6 mph - N/A   Clear
4:53 AM 57.9 °F 55.9 °F 93% 30.03 in 9.0 mi SW 4.6 mph - N/A   Partly Cloudy
5:53 AM 57.9 °F 55.0 °F 90% 30.03 in 9.0 mi SW 5.8 mph - N/A   Scattered Clouds
6:53 AM 55.9 °F 54.0 °F 93% 30.01 in 10.0 mi West 9.2 mph - N/A   Scattered Clouds
7:53 AM 55.9 °F 52.0 °F 87% 30.01 in 10.0 mi West 6.9 mph - N/A   Clear
8:53 AM 55.9 °F 52.0 °F 87% 30.05 in 10.0 mi West 8.1 mph - N/A   Clear
9:53 AM 59.0 °F 50.0 °F 72% 30.12 in 10.0 mi NNW 5.8 mph - N/A   Clear
10:53 AM 63.0 °F 48.9 °F 60% 30.13 in 10.0 mi NNW 3.5 mph - N/A   Clear
12:53 PM 66.0 °F 46.0 °F 48% 30.06 in 10.0 mi Variable 3.5 mph - N/A   Clear
1:53 PM 66.9 °F 48.0 °F 51% 30.04 in 10.0 mi Variable 6.9 mph - N/A   Clear
2:53 PM 64.9 °F 48.0 °F 54% 30.04 in 10.0 mi SSW 10.4 mph - N/A   Clear
3:53 PM 66.0 °F 46.9 °F 50% 30.02 in 10.0 mi South 8.1 mph - N/A   Clear
4:53 PM 64.9 °F 46.9 °F 52% 30.02 in 10.0 mi South 8.1 mph - N/A   Clear
5:53 PM 62.1 °F 48.0 °F 60% 30.03 in 10.0 mi South 6.9 mph - N/A   Clear
6:53 PM 57.0 °F 48.9 °F 74% 30.04 in 10.0 mi South 6.9 mph - N/A   Clear
7:53 PM 57.0 °F 48.0 °F 72% 30.04 in 10.0 mi South 6.9 mph - N/A   Clear
8:53 PM 55.9 °F 48.0 °F 75% 30.05 in 10.0 mi South 5.8 mph - N/A   Clear
9:53 PM 54.0 °F 48.0 °F 80% 30.05 in 10.0 mi South 8.1 mph - N/A   Clear
10:53 PM 54.0 °F 51.1 °F 90% 30.06 in 10.0 mi SSE 5.8 mph - N/A   Clear
11:53 PM 54.0 °F 51.1 °F 90% 30.06 in 10.0 mi SE 5.8 mph - N/A   Clear